Location: Melbourne
(37.8170°S, 144.9670°E)
Time: 02:02:59
(UTC+10:00)

ISS - All Passes

Search period start: 26 June 2016 00:00
Search period end: 06 July 2016 00:00
Orbit: 402 x 403 km, 51.6° (Epoch: 25 June)

Date Brightness Start Highest point End Pass type
(mag) Time Alt. Az. Time Alt. Az. Time Alt. Az.
26 Jun - 02:12:47 10° S 02:13:11 10° SSE 02:13:34 10° SSE night (unlit)
26 Jun - 03:47:20 10° SW 03:50:26 34° SSE 03:53:30 10° E night (unlit)
26 Jun - 05:24:04 10° WSW 05:26:45 23° NW 05:29:25 10° N visible
26 Jun - 20:25:47 10° N 20:28:34 25° NE 20:31:23 10° ESE night (unlit)
26 Jun - 22:01:56 10° W 22:04:56 31° SSW 22:07:59 10° SSE night (unlit)
27 Jun - 02:54:53 10° SSW 02:57:32 21° SSE 03:00:10 10° E night (unlit)
27 Jun - 04:30:55 10° WSW 04:34:09 47° NW 04:37:19 10° NNE visible
27 Jun - 19:34:29 10° NNE 19:36:02 13° NE 19:37:35 10° E night (unlit)
27 Jun - 21:08:50 10° WNW 21:12:06 58° SW 21:15:24 10° SE night (unlit)
27 Jun - 22:47:34 10° SW 22:49:08 13° SSW 22:50:44 10° S night (unlit)
28 Jun - 02:02:33 10° SSW 02:04:32 15° SSE 02:06:30 10° ESE night (unlit)
28 Jun - 03:38:05 10° SW 03:41:26 81° SE 03:44:44 10° NE night (unlit)
28 Jun - 20:16:04 10° NW 20:19:21 68° NE 20:22:40 10° SE visible
28 Jun - 21:53:44 10° WSW 21:56:06 18° SSW 21:58:28 10° SSE night (unlit)
29 Jun - 01:10:28 10° S 01:11:27 11° SSE 01:12:25 10° SSE night (unlit)
29 Jun - 02:45:27 10° SW 02:48:37 40° SE 02:51:47 10° ENE night (unlit)
29 Jun - 04:22:28 10° W 04:24:51 18° NW 04:27:13 10° N night (unlit)
29 Jun - 19:23:42 10° NNW 19:26:40 31° NE 19:29:40 10° ESE visible
29 Jun - 21:00:14 10° W 21:03:07 27° SSW 21:06:02 10° SSE night (unlit)
30 Jun - 01:52:55 10° SSW 01:55:43 24° SSE 01:58:30 10° E night (unlit)
30 Jun - 03:29:08 10° WSW 03:32:14 37° NW 03:35:19 10° NNE night (unlit)
30 Jun - 18:32:00 10° NNE 18:34:04 16° NE 18:36:09 10° E visible
30 Jun - 20:07:01 10° WNW 20:10:14 47° SW 20:13:29 10° SE visible
30 Jun - 21:46:04 10° SW 21:47:20 12° SSW 21:48:37 10° S night (unlit)
01 Jul - 01:00:30 10° SSW 01:02:43 16° SSE 01:04:54 10° ESE night (unlit)
01 Jul - 02:36:12 10° SW 02:39:32 82° NW 02:42:50 10° NE night (unlit)
01 Jul - 19:14:07 10° NW 19:17:25 85° NE 19:20:46 10° SE visible
01 Jul - 20:52:05 10° WSW 20:54:15 16° SSW 20:56:25 10° SSE night (unlit)
02 Jul - 00:08:17 10° S 00:09:37 12° SSE 00:10:57 10° SE night (unlit)
02 Jul - 01:43:27 10° SW 01:46:44 49° SE 01:49:56 10° ENE night (unlit)
02 Jul - 03:20:51 10° W 03:22:52 15° NW 03:24:51 10° NNW night (unlit)
02 Jul - 18:21:35 10° NNW 18:24:41 39° NE 18:27:49 10° ESE visible
02 Jul - 19:58:28 10° W 20:01:13 24° SSW 20:04:00 10° SSE visible
03 Jul - 00:50:53 10° SSW 00:53:49 28° SSE 00:56:43 10° E night (unlit)
03 Jul - 02:27:16 10° WSW 02:30:14 30° NW 02:33:11 10° NNE night (unlit)
03 Jul - 17:29:36 10° N 17:32:02 19° NE 17:34:29 10° E daylight
03 Jul - 19:05:08 10° WNW 19:08:17 39° SW 19:11:27 10° SE visible
03 Jul - 20:44:34 10° SSW 20:45:28 11° SSW 20:46:21 10° S night (unlit)
03 Jul - 23:58:24 10° SSW 00:00:48 18° SSE 00:03:11 10° ESE night (unlit)
04 Jul - 01:34:13 10° SW 01:37:32 65° NW 01:40:48 10° NE night (unlit)
04 Jul - 18:12:06 10° NW 18:15:24 78° SW 18:18:44 10° SE visible
04 Jul - 19:50:23 10° WSW 19:52:19 14° SSW 19:54:16 10° SSE visible
04 Jul - 23:06:04 10° S 23:07:42 13° SSE 23:09:19 10° SE night (unlit)
05 Jul - 00:41:25 10° SW 00:44:43 60° SE 00:47:59 10° ENE night (unlit)
05 Jul - 02:19:21 10° WNW 02:20:46 12° NW 02:22:11 10° NNW night (unlit)
05 Jul - 17:19:25 10° NNW 17:22:37 49° NE 17:25:51 10° ESE daylight
05 Jul - 18:56:38 10° W 18:59:15 21° SSW 19:01:52 10° SSE visible
05 Jul - 23:48:45 10° SSW 23:51:48 32° SSE 23:54:50 10° E night (unlit)
